Weather Roundup
Issued by NWS Chicago, IL

Home | Current Version | Previous Version | Graphics & Text | Print | Product List | Glossary On
Versions: 1 2 3 4 5 6 7 8 9 10 11 12 13 14 15 16 17 18 19 20 21 22 23 24 25 26 27 28 29 30 31 32 33 34 35 36 37 38 39 40 41 42 43 44 45 46 47 48 49 50
628
NZUS59 KLOT 242009
HRRLOT

CHICAGO AREA WEATHER ROUNDUP
NATIONAL WEATHER SERVICE CHICAGO/ROMEOVILLE IL
300 PM CDT SUN SEP 24 2017

NOTE: "FAIR" INDICATES FEW OR NO CLOUDS BELOW 12,000 FEET WITH NO
SIGNIFICANT WEATHER AND/OR OBSTRUCTIONS TO VISIBILITY.

* THESE STATIONS ARE NOT UNDER NWS QUALITY CONTROL. THEY ALSO MAY NOT
  REPORT WEATHER SUCH AS PRECIPITATION OR FOG.

ILZ005-006-012>014-019>023-242100-
NORTHEAST ILLINOIS

CITY           SKY/WX    TMP DP  RH WIND       PRES   REMARKS
OHARE          MOSUNNY   91  58  32 SE9       30.02F HX  90
MIDWAY         MOSUNNY   91  59  33 S10       30.02F HX  90
AURORA         MOSUNNY   90  62  39 S9G16     30.03F HX  90
LANSING*       SUNNY     91  64  40 SE8       30.03F HX  91
JOLIET*        SUNNY     91  62  37 S9        30.02F HX  92
WAUKEGAN       SUNNY     85  66  53 SE9       30.03F HX  87
DUPAGE AIRPORT MOSUNNY   90  61  37 SE13G20   30.03F HX  90
WHEELING       SUNNY     91  64  40 SE9G17    30.03F HX  92
MORRIS*        SUNNY     91  59  35 S5        30.01F HX  90
LEWIS AIRPORT* SUNNY     89  60  38 SE8       30.03F HX  88
NORTHERLY ISL    N/A     80  67  64 E9          N/A  HX  82
$$

WIZ051-052-058>065-066-070>072-242100-
SOUTHEAST WISCONSIN

CITY           SKY/WX    TMP DP  RH WIND       PRES   REMARKS
MILWAUKEE      MOSUNNY   88  66  48 SE15      30.03F HX  90
KENOSHA*       SUNNY     90  62  39 SE12      30.04F HX  90
RACINE*        SUNNY     87  64  46 SE12      30.05F HX  88
WAUKESHA       MOSUNNY   88  57  35 SE10G17   30.04F HX  86
WEST BEND        N/A     88  61  40 SE6       30.03F HX  88
$$

INZ001>003-010>013-019-020-242100-
NORTHWEST INDIANA

CITY           SKY/WX    TMP DP  RH WIND       PRES   REMARKS
GARY*          MOSUNNY   91  52  25 SE7       30.04F HX  89
MICHIGAN CITY* NOT AVBL
RENSSELAER*    NOT AVBL
VALPARAISO     SUNNY     93  57  29 VRB7      30.05F HX  91
$$

LMZ740>746-242100-
SOUTHERN LAKE MICHIGAN

STATION/POSITION TIME  SKY/WX   TEMP WIND        PRES    VSBY
                                AIR  DIR/SP/G
                 (UTC)          (F)  (DEG/KT/KT) (MB)    (MI)
HARRISON CRIB    1940            77   80/ 11/ 12   N/A
BURNHAM HARBOR   2000            79                N/A
CALUMET HARBOR   1948            81   40/  6/ 10 1016.6F
BURNS HARBOR     1940            77   10/ 12/ 14 1017.3F
MICHIGAN CITY    1940            80   20/  7/  8   N/A
$$

ABBREVIATIONS USED IN REMARKS
   TC - TEMPERATURE IN CELSIUS
  WCI - WIND CHILL INDEX
   HX - HEAT INDEX
  VSB - VISIBILITY
$$




USA.gov is the U.S. government's official web portal to all federal, state and local government web resources and services.